| time (UTC) | temp C | wind direction | speed KPH | gust KPH | rain 1hr cm | rain 24hr cm | rain mn cm | humidity % | barometer mb |
| 20260507212651 | 14 | 38 | 3.2 | 6.4 | 0.00 | 0.30 | 0.08 | 72 | 1014.5 |
| 20260507212207 | 14 | 40 | 3.2 | 6.4 | 0.00 | 0.30 | 0.08 | 72 | 1014.5 |
| 20260507211652 | 14 | 42 | 3.2 | 6.4 | 0.00 | 0.30 | 0.08 | 72 | 1014.5 |
| 20260507211149 | 14 | 42 | 1.6 | 6.4 | 0.00 | 0.30 | 0.08 | 72 | 1014.5 |
| 20260507210647 | 14 | 42 | 3.2 | 4.8 | 0.00 | 0.30 | 0.08 | 72 | 1014.4 |
| 20260507210151 | 14 | 42 | 1.6 | 8.0 | 0.00 | 0.30 | 0.08 | 72 | 1014.4 |
| 20260507205648 | 14 | 42 | 4.8 | 8.0 | 0.00 | 0.41 | 0.08 | 72 | 1014.4 |
| 20260507205208 | 14 | 36 | 1.6 | 4.8 | 0.00 | 0.41 | 0.08 | 72 | 1014.5 |
| 20260507204703 | 14 | 36 | 1.6 | 6.4 | 0.00 | 0.41 | 0.08 | 71 | 1014.6 |
| 20260507204155 | 15 | 36 | 3.2 | 6.4 | 0.00 | 0.41 | 0.08 | 71 | 1014.5 |
| 20260507203647 | 15 | 36 | 3.2 | 6.4 | 0.00 | 0.41 | 0.08 | 70 | 1014.4 |
| 20260507203147 | 15 | 36 | 4.8 | 6.4 | 0.00 | 0.41 | 0.08 | 70 | 1014.4 |
| 20260507202656 | 15 | 33 | 1.6 | 6.4 | 0.00 | 0.41 | 0.08 | 70 | 1014.3 |
| 20260507202150 | 15 | 32 | 3.2 | 6.4 | 0.00 | 0.41 | 0.08 | 70 | 1014.2 |
| 20260507201706 | 15 | 32 | 4.8 | 6.4 | 0.00 | 0.41 | 0.08 | 69 | 1014.2 |
| 20260507201226 | 15 | 30 | 3.2 | 6.4 | 0.00 | 0.41 | 0.08 | 69 | 1014.1 |
| 20260507200654 | 15 | 29 | 3.2 | 6.4 | 0.00 | 0.41 | 0.08 | 69 | 1014.0 |
| 20260507200203 | 15 | 28 | 3.2 | 6.4 | 0.00 | 0.41 | 0.08 | 68 | 1014.0 |
| 20260507195703 | 15 | 26 | 4.8 | 6.4 | 0.00 | 1.19 | 0.08 | 67 | 1013.9 |
| 20260507195201 | 15 | 25 | 3.2 | 6.4 | 0.00 | 1.19 | 0.08 | 67 | 1013.8 |
| 20260507194712 | 15 | 24 | 3.2 | 6.4 | 0.00 | 1.19 | 0.08 | 67 | 1013.8 |
| 20260507194149 | 15 | 22 | 3.2 | 4.8 | 0.00 | 1.19 | 0.08 | 67 | 1013.7 |
| 20260507193730 | 15 | 22 | 3.2 | 4.8 | 0.00 | 1.19 | 0.08 | 68 | 1013.7 |
| 20260507193207 | 15 | 21 | 3.2 | 4.8 | 0.00 | 1.19 | 0.08 | 67 | 1013.5 |
| 20260507192657 | 15 | 20 | 3.2 | 4.8 | 0.00 | 1.19 | 0.08 | 67 | 1013.5 |
| 20260507192151 | 15 | 19 | 3.2 | 4.8 | 0.00 | 1.19 | 0.08 | 67 | 1013.3 |
| 20260507191705 | 15 | 19 | 4.8 | 4.8 | 0.00 | 1.19 | 0.08 | 67 | 1013.3 |
| 20260507191208 | 15 | 19 | 1.6 | 6.4 | 0.00 | 1.19 | 0.08 | 66 | 1013.3 |
| 20260507190705 | 15 | 19 | 3.2 | 6.4 | 0.00 | 1.19 | 0.08 | 65 | 1013.2 |
| 20260507190206 | 15 | 19 | 3.2 | 6.4 | 0.00 | 1.19 | 0.08 | 65 | 1013.2 |
| 20260507185655 | 15 | 17 | 4.8 | 8.0 | 0.00 | 1.50 | 0.08 | 65 | 1013.1 |
| 20260507185215 | 15 | 15 | 3.2 | 8.0 | 0.00 | 1.50 | 0.08 | 65 | 1013.0 |
| 20260507184655 | 15 | 19 | 3.2 | 8.0 | 0.00 | 1.50 | 0.08 | 65 | 1013.0 |
| 20260507184155 | 15 | 21 | 4.8 | 6.4 | 0.00 | 1.50 | 0.08 | 65 | 1012.9 |
| 20260507183652 | 15 | 19 | 3.2 | 6.4 | 0.00 | 1.50 | 0.08 | 65 | 1012.9 |
| 20260507183155 | 15 | 18 | 4.8 | 8.0 | 0.00 | 1.50 | 0.08 | 65 | 1012.9 |
| 20260507182659 | 16 | 13 | 4.8 | 8.0 | 0.00 | 1.50 | 0.08 | 64 | 1012.8 |
| 20260507182159 | 16 | 20 | 4.8 | 8.0 | 0.00 | 1.50 | 0.08 | 64 | 1012.7 |
| 20260507181701 | 16 | 17 | 4.8 | 8.0 | 0.00 | 1.50 | 0.08 | 64 | 1012.7 |
| 20260507181153 | 16 | 21 | 3.2 | 6.4 | 0.00 | 1.50 | 0.08 | 64 | 1012.7 |
| 20260507180657 | 16 | 19 | 4.8 | 6.4 | 0.00 | 1.50 | 0.08 | 64 | 1012.6 |
| 20260507180201 | 16 | 17 | 4.8 | 6.4 | 0.00 | 1.50 | 0.08 | 63 | 1012.5 |
| 20260507175702 | 16 | 5 | 4.8 | 6.4 | 0.00 | 1.50 | 0.08 | 63 | 1012.5 |
| 20260507175200 | 16 | 355 | 4.8 | 6.4 | 0.00 | 1.50 | 0.08 | 62 | 1012.4 |
| 20260507174702 | 17 | 336 | 4.8 | 6.4 | 0.00 | 1.50 | 0.08 | 61 | 1012.4 |
| 20260507174227 | 17 | 308 | 4.8 | 6.4 | 0.00 | 1.50 | 0.08 | 61 | 1012.4 |
| 20260507173702 | 17 | 297 | 4.8 | 6.4 | 0.00 | 1.50 | 0.08 | 59 | 1012.4 |
| 20260507173152 | 18 | 286 | 4.8 | 6.4 | 0.00 | 1.50 | 0.08 | 57 | 1012.4 |
| 20260507172714 | 18 | 284 | 3.2 | 4.8 | 0.00 | 1.50 | 0.08 | 56 | 1012.3 |
| 20260507172156 | 18 | 282 | 1.6 | 4.8 | 0.00 | 1.50 | 0.08 | 56 | 1012.2 |
| 20260507171658 | 18 | 282 | 3.2 | 4.8 | 0.00 | 1.50 | 0.08 | 55 | 1012.3 |
| 20260507171200 | 19 | 282 | 3.2 | 4.8 | 0.00 | 1.50 | 0.08 | 54 | 1012.3 |
| 20260507170651 | 19 | 282 | 3.2 | 4.8 | 0.00 | 1.50 | 0.08 | 53 | 1012.3 |
| 20260507170158 | 19 | 282 | 1.6 | 3.2 | 0.00 | 1.50 | 0.08 | 54 | 1012.2 |
| 20260507165725 | 19 | 282 | 1.6 | 3.2 | 0.00 | 1.60 | 0.08 | 54 | 1012.1 |
| 20260507165205 | 20 | 282 | 1.6 | 4.8 | 0.00 | 1.60 | 0.08 | 51 | 1012.1 |
| 20260507164701 | 20 | 281 | 1.6 | 6.4 | 0.00 | 1.60 | 0.08 | 48 | 1012.1 |
| 20260507164159 | 20 | 281 | 3.2 | 6.4 | 0.00 | 1.60 | 0.08 | 48 | 1012.1 |
| 20260507163723 | 20 | 281 | 1.6 | 8.0 | 0.00 | 1.60 | 0.08 | 48 | 1012.1 |
| 20260507163228 | 20 | 281 | 3.2 | 8.0 | 0.00 | 1.60 | 0.08 | 49 | 1012.0 |
| 20260507162706 | 20 | 291 | 4.8 | 8.0 | 0.00 | 1.60 | 0.08 | 49 | 1012.0 |
| 20260507162204 | 20 | 271 | 3.2 | 8.0 | 0.00 | 1.60 | 0.08 | 48 | 1012.1 |
| 20260507161722 | 19 | 279 | 1.6 | 8.0 | 0.00 | 1.60 | 0.08 | 48 | 1012.0 |
| 20260507161158 | 20 | 309 | 4.8 | 8.0 | 0.00 | 1.60 | 0.08 | 50 | 1012.0 |
| 20260507160703 | 19 | 309 | 4.8 | 8.0 | 0.00 | 1.60 | 0.08 | 49 | 1012.0 |
| 20260507160213 | 19 | 242 | 3.2 | 8.0 | 0.00 | 1.60 | 0.08 | 50 | 1012.1 |
| 20260507155700 | 19 | 276 | 3.2 | 8.0 | 0.00 | 9.80 | 0.08 | 51 | 1012.1 |
| 20260507155205 | 18 | 284 | 4.8 | 8.0 | 0.00 | 9.80 | 0.08 | 51 | 1012.2 |
| 20260507154700 | 18 | 290 | 4.8 | 9.7 | 0.00 | 9.80 | 0.08 | 51 | 1012.1 |
| 20260507154158 | 18 | 290 | 4.8 | 9.7 | 0.00 | 9.80 | 0.08 | 52 | 1012.1 |
| 20260507153656 | 18 | 273 | 4.8 | 9.7 | 0.00 | 9.80 | 0.08 | 52 | 1012.1 |
| 20260507153155 | 18 | 271 | 4.8 | 9.7 | 0.00 | 9.80 | 0.08 | 52 | 1012.1 |
| 20260507152653 | 18 | 265 | 6.4 | 9.7 | 0.00 | 9.80 | 0.08 | 52 | 1012.0 |
| 20260507152150 | 18 | 266 | 4.8 | 11.3 | 0.00 | 9.80 | 0.08 | 52 | 1012.0 |
| 20260507151708 | 18 | 293 | 6.4 | 11.3 | 0.00 | 9.80 | 0.08 | 52 | 1012.1 |
| 20260507151206 | 18 | 292 | 6.4 | 12.9 | 0.00 | 9.80 | 0.08 | 52 | 1012.1 |
| 20260507150709 | 18 | 263 | 8.0 | 12.9 | 0.00 | 9.80 | 0.08 | 52 | 1012.1 |
| 20260507150157 | 19 | 294 | 3.2 | 11.3 | 0.00 | 9.80 | 0.08 | 52 | 1012.0 |
| 20260507145653 | 19 | 270 | 4.8 | 9.7 | 0.00 | 16.10 | 0.08 | 52 | 1012.1 |
| 20260507145215 | 19 | 302 | 4.8 | 12.9 | 0.00 | 16.10 | 0.08 | 51 | 1012.1 |
| 20260507144659 | 19 | 265 | 8.0 | 16.1 | 0.00 | 16.10 | 0.08 | 51 | 1012.1 |
| 20260507144156 | 19 | 198 | 6.4 | 16.1 | 0.00 | 16.10 | 0.08 | 50 | 1012.0 |
| 20260507143658 | 19 | 261 | 8.0 | 11.3 | 0.00 | 16.10 | 0.08 | 51 | 1012.1 |
| 20260507143214 | 19 | 14 | 6.4 | 11.3 | 0.00 | 16.10 | 0.08 | 50 | 1012.1 |
| 20260507142652 | 19 | 241 | 6.4 | 11.3 | 0.00 | 16.10 | 0.08 | 49 | 1012.1 |
| 20260507142149 | 19 | 343 | 6.4 | 11.3 | 0.00 | 16.10 | 0.08 | 49 | 1012.1 |
| 20260507141707 | 19 | 207 | 4.8 | 14.5 | 0.00 | 16.10 | 0.08 | 52 | 1012.1 |
| 20260507141203 | 18 | 213 | 8.0 | 14.5 | 0.00 | 16.10 | 0.08 | 51 | 1012.2 |
| 20260507140703 | 19 | 273 | 4.8 | 16.1 | 0.00 | 16.10 | 0.08 | 52 | 1012.2 |
| 20260507140150 | 18 | 285 | 4.8 | 11.3 | 0.00 | 16.10 | 0.08 | 52 | 1012.2 |
| 20260507135701 | 19 | 284 | 6.4 | 11.3 | 0.00 | 16.10 | 0.08 | 49 | 1012.3 |
| 20260507135159 | 19 | 306 | 8.0 | 14.5 | 0.00 | 16.10 | 0.08 | 51 | 1012.3 |
| 20260507134657 | 18 | 252 | 8.0 | 17.7 | 0.00 | 16.10 | 0.08 | 55 | 1012.3 |
| 20260507134149 | 18 | 254 | 12.9 | 17.7 | 0.00 | 16.10 | 0.08 | 52 | 1012.4 |
| 20260507133649 | 18 | 317 | 6.4 | 16.1 | 0.00 | 16.10 | 0.08 | 52 | 1012.5 |
| 20260507133158 | 18 | 323 | 6.4 | 16.1 | 0.00 | 16.10 | 0.08 | 54 | 1012.5 |
| 20260507132652 | 18 | 319 | 8.0 | 12.9 | 0.00 | 16.10 | 0.08 | 54 | 1012.5 |
| 20260507132206 | 18 | 248 | 9.7 | 12.9 | 0.00 | 16.10 | 0.08 | 55 | 1012.6 |
| 20260507131652 | 18 | 275 | 6.4 | 12.9 | 0.00 | 16.10 | 0.08 | 54 | 1012.6 |
| 20260507131155 | 18 | 276 | 6.4 | 16.1 | 0.00 | 16.10 | 0.08 | 55 | 1012.6 |
| 20260507130716 | 18 | 273 | 9.7 | 16.1 | 0.00 | 16.10 | 0.08 | 54 | 1012.7 |
| 20260507130221 | 18 | 253 | 3.2 | 17.7 | 0.00 | 16.10 | 0.08 | 55 | 1012.7 |
| 20260507125716 | 18 | 336 | 9.7 | 17.7 | 0.00 | 16.41 | 0.08 | 54 | 1012.7 |
| 20260507125152 | 18 | 241 | 9.7 | 17.7 | 0.00 | 16.41 | 0.08 | 53 | 1012.7 |
| 20260507124650 | 18 | 204 | 6.4 | 17.7 | 0.00 | 16.41 | 0.08 | 56 | 1012.7 |
| 20260507124226 | 18 | 287 | 3.2 | 14.5 | 0.00 | 16.41 | 0.08 | 55 | 1012.8 |
| 20260507123721 | 18 | 271 | 9.7 | 14.5 | 0.00 | 16.41 | 0.08 | 56 | 1012.8 |
| 20260507123151 | 18 | 279 | 6.4 | 17.7 | 0.00 | 16.41 | 0.08 | 57 | 1012.8 |
| 20260507122649 | 18 | 234 | 11.3 | 17.7 | 0.00 | 16.41 | 0.08 | 54 | 1012.8 |
| 20260507122152 | 18 | 264 | 6.4 | 12.9 | 0.00 | 16.41 | 0.08 | 59 | 1012.7 |
| 20260507121708 | 18 | 211 | 8.0 | 12.9 | 0.00 | 16.41 | 0.08 | 61 | 1012.8 |
| 20260507121206 | 18 | 205 | 8.0 | 12.9 | 0.00 | 16.41 | 0.08 | 57 | 1012.9 |
| 20260507120659 | 18 | 265 | 1.6 | 12.9 | 0.00 | 16.41 | 0.08 | 60 | 1012.9 |
| 20260507120149 | 17 | 276 | 6.4 | 14.5 | 0.00 | 16.41 | 0.08 | 62 | 1012.9 |
| 20260507115701 | 17 | 264 | 6.4 | 12.9 | 0.00 | 19.10 | 0.08 | 60 | 1012.9 |
| 20260507115202 | 17 | 286 | 6.4 | 17.7 | 0.00 | 19.10 | 0.08 | 62 | 1013.0 |
| 20260507114719 | 17 | 257 | 4.8 | 12.9 | 0.00 | 19.10 | 0.08 | 62 | 1013.0 |
| 20260507114156 | 18 | 238 | 6.4 | 14.5 | 0.00 | 19.10 | 0.08 | 60 | 1013.1 |
| 20260507113656 | 17 | 292 | 8.0 | 14.5 | 0.00 | 19.10 | 0.08 | 58 | 1013.1 |
| 20260507113200 | 17 | 244 | 4.8 | 11.3 | 0.00 | 19.10 | 0.08 | 60 | 1013.1 |
| 20260507112701 | 17 | 243 | 4.8 | 14.5 | 0.00 | 19.10 | 0.08 | 58 | 1013.2 |
| 20260507112202 | 17 | 252 | 9.7 | 14.5 | 0.00 | 19.10 | 0.08 | 60 | 1013.2 |
| 20260507111725 | 17 | 348 | 3.2 | 9.7 | 0.00 | 19.10 | 0.08 | 61 | 1013.3 |
| 20260507111203 | 17 | 254 | 3.2 | 14.5 | 0.00 | 19.10 | 0.08 | 63 | 1013.3 |
| 20260507110700 | 17 | 222 | 6.4 | 14.5 | 0.00 | 19.10 | 0.08 | 62 | 1013.3 |
| 20260507110204 | 17 | 269 | 6.4 | 9.7 | 0.00 | 19.10 | 0.08 | 64 | 1013.4 |
| 20260507105700 | 16 | 333 | 4.8 | 11.3 | 0.00 | 19.10 | 0.08 | 62 | 1013.5 |
| 20260507105223 | 17 | 336 | 4.8 | 14.5 | 0.00 | 19.10 | 0.08 | 66 | 1013.5 |
| 20260507104659 | 16 | 287 | 8.0 | 12.9 | 0.00 | 19.10 | 0.08 | 64 | 1013.5 |
| 20260507104155 | 17 | 308 | 6.4 | 12.9 | 0.00 | 19.10 | 0.08 | 63 | 1013.5 |
| 20260507103651 | 17 | 289 | 6.4 | 12.9 | 0.00 | 19.10 | 0.08 | 65 | 1013.5 |
| 20260507103222 | 17 | 267 | 4.8 | 11.3 | 0.00 | 19.10 | 0.08 | 66 | 1013.5 |
| 20260507102659 | 17 | 272 | 3.2 | 11.3 | 0.00 | 19.10 | 0.08 | 65 | 1013.6 |
| 20260507102155 | 17 | 282 | 3.2 | 11.3 | 0.00 | 19.10 | 0.08 | 65 | 1013.5 |
| 20260507101704 | 16 | 297 | 4.8 | 11.3 | 0.00 | 19.10 | 0.08 | 67 | 1013.5 |
| 20260507101202 | 16 | 297 | 4.8 | 12.9 | 0.00 | 19.10 | 0.08 | 66 | 1013.7 |
| 20260507100659 | 16 | 254 | 6.4 | 12.9 | 0.00 | 19.10 | 0.08 | 63 | 1013.7 |
| 20260507100146 | 16 | 308 | 3.2 | 8.0 | 0.00 | 19.10 | 0.08 | 66 | 1013.7 |
| 20260507095651 | 16 | 247 | 3.2 | 9.7 | 0.00 | 20.40 | 0.08 | 64 | 1013.7 |
| 20260507095158 | 16 | 195 | 6.4 | 9.7 | 0.00 | 20.40 | 0.08 | 64 | 1013.7 |
| 20260507094656 | 16 | 245 | 3.2 | 8.0 | 0.00 | 20.40 | 0.08 | 62 | 1013.7 |
| 20260507094203 | 16 | 252 | 4.8 | 12.9 | 0.00 | 20.40 | 0.08 | 63 | 1013.7 |
| 20260507093720 | 16 | 323 | 6.4 | 12.9 | 0.00 | 20.40 | 0.08 | 63 | 1013.7 |
| 20260507093209 | 15 | 282 | 4.8 | 9.7 | 0.00 | 20.40 | 0.08 | 64 | 1013.7 |
| 20260507092705 | 15 | 240 | 4.8 | 11.3 | 0.00 | 20.40 | 0.08 | 64 | 1013.7 |
| 20260507092222 | 15 | 272 | 6.4 | 11.3 | 0.00 | 20.40 | 0.08 | 65 | 1013.7 |
| 20260507091657 | 15 | 281 | 3.2 | 9.7 | 0.00 | 20.40 | 0.08 | 66 | 1013.6 |
| 20260507091157 | 15 | 161 | 3.2 | 8.0 | 0.00 | 20.40 | 0.08 | 63 | 1013.6 |
| 20260507090653 | 15 | 150 | 4.8 | 8.0 | 0.00 | 20.40 | 0.08 | 64 | 1013.6 |
| 20260507090157 | 15 | 154 | 4.8 | 9.7 | 0.00 | 20.40 | 0.08 | 66 | 1013.6 |
| 20260507085653 | 15 | 150 | 4.8 | 9.7 | 0.00 | 21.59 | 0.08 | 66 | 1013.6 |
| 20260507085149 | 15 | 174 | 4.8 | 8.0 | 0.00 | 21.59 | 0.08 | 65 | 1013.7 |
| 20260507084706 | 14 | 197 | 3.2 | 6.4 | 0.00 | 21.59 | 0.08 | 69 | 1013.6 |
| 20260507084200 | 14 | 197 | 3.2 | 6.4 | 0.00 | 21.59 | 0.08 | 71 | 1013.6 |
| 20260507083650 | 14 | 197 | 3.2 | 6.4 | 0.00 | 21.59 | 0.08 | 71 | 1013.5 |
| 20260507083201 | 15 | 197 | 3.2 | 11.3 | 0.00 | 21.59 | 0.08 | 70 | 1013.5 |
| 20260507082659 | 15 | 199 | 6.4 | 11.3 | 0.00 | 21.59 | 0.08 | 68 | 1013.5 |
| 20260507082155 | 16 | 159 | 4.8 | 8.0 | 0.00 | 21.59 | 0.08 | 67 | 1013.5 |
| 20260507081656 | 15 | 202 | 4.8 | 8.0 | 0.00 | 21.59 | 0.08 | 67 | 1013.4 |
| 20260507081150 | 15 | 200 | 4.8 | 11.3 | 0.00 | 21.59 | 0.08 | 68 | 1013.4 |
| 20260507080646 | 15 | 209 | 6.4 | 11.3 | 0.00 | 21.59 | 0.08 | 68 | 1013.4 |
| 20260507080153 | 15 | 183 | 3.2 | 8.0 | 0.00 | 21.59 | 0.08 | 67 | 1013.3 |
| 20260507075700 | 15 | 181 | 4.8 | 8.0 | 0.00 | 22.20 | 0.08 | 66 | 1013.3 |
| 20260507075204 | 15 | 161 | 4.8 | 8.0 | 0.00 | 22.20 | 0.08 | 67 | 1013.2 |
| 20260507074719 | 15 | 154 | 3.2 | 8.0 | 0.00 | 22.20 | 0.08 | 67 | 1013.2 |
| 20260507074200 | 15 | 134 | 4.8 | 6.4 | 0.00 | 22.20 | 0.08 | 68 | 1013.2 |
| 20260507073657 | 15 | 122 | 3.2 | 6.4 | 0.00 | 22.20 | 0.08 | 68 | 1013.2 |
| 20260507073212 | 15 | 119 | 1.6 | 6.4 | 0.00 | 22.20 | 0.08 | 69 | 1013.1 |
| 20260507072650 | 14 | 119 | 3.2 | 8.0 | 0.00 | 22.20 | 0.08 | 70 | 1013.1 |
| 20260507072158 | 14 | 117 | 3.2 | 8.0 | 0.00 | 22.20 | 0.08 | 71 | 1013.1 |
| 20260507071652 | 13 | 88 | 3.2 | 11.3 | 0.00 | 22.20 | 0.08 | 69 | 1013.1 |
| 20260507071208 | 13 | 86 | 3.2 | 11.3 | 0.00 | 22.20 | 0.08 | 70 | 1013.1 |
| 20260507070702 | 14 | 71 | 1.6 | 4.8 | 0.00 | 22.20 | 0.08 | 69 | 1013.1 |
| 20260507070149 | 13 | 69 | 1.6 | 6.4 | 0.00 | 22.20 | 0.08 | 72 | 1013.0 |
| 20260507065724 | 13 | 67 | 4.8 | 17.7 | 0.00 | 22.20 | 0.08 | 71 | 1013.0 |
| 20260507065201 | 13 | 344 | 6.4 | 22.5 | 0.00 | 22.20 | 0.08 | 67 | 1012.9 |
| 20260507064656 | 12 | 340 | 12.9 | 29.0 | 0.00 | 22.20 | 0.08 | 67 | 1012.9 |
| 20260507064158 | 12 | 327 | 19.3 | 30.6 | 0.00 | 22.20 | 0.08 | 69 | 1012.9 |
| 20260507063709 | 12 | 340 | 17.7 | 30.6 | 0.00 | 22.20 | 0.08 | 69 | 1012.8 |
| 20260507063205 | 12 | 340 | 12.9 | 30.6 | 0.00 | 22.20 | 0.08 | 71 | 1012.7 |
| 20260507062701 | 11 | 304 | 17.7 | 30.6 | 0.00 | 22.20 | 0.08 | 72 | 1012.7 |
| 20260507062152 | 11 | 360 | 12.9 | 24.1 | 0.00 | 22.20 | 0.08 | 75 | 1012.6 |
| 20260507061647 | 10 | 13 | 9.7 | 17.7 | 0.00 | 22.20 | 0.08 | 81 | 1012.6 |
| 20260507061158 | 10 | 157 | 3.2 | 4.8 | 0.00 | 22.20 | 0.08 | 82 | 1012.5 |
| 20260507060716 | 11 | 157 | 1.6 | 4.8 | 0.00 | 22.20 | 0.08 | 81 | 1012.6 |
| 20260507060202 | 11 | 173 | 3.2 | 14.5 | 0.00 | 22.20 | 0.08 | 79 | 1012.6 |
| 20260507055655 | 11 | 173 | 8.0 | 16.1 | 0.00 | 22.61 | 0.08 | 76 | 1012.6 |
| 20260507055209 | 11 | 15 | 8.0 | 16.1 | 0.00 | 22.61 | 0.08 | 74 | 1012.5 |
| 20260507054700 | 11 | 16 | 4.8 | 19.3 | 0.00 | 22.61 | 0.08 | 73 | 1012.5 |
| 20260507054158 | 11 | 336 | 8.0 | 19.3 | 0.00 | 22.61 | 0.08 | 74 | 1012.5 |
| 20260507053652 | 11 | 311 | 4.8 | 11.3 | 0.00 | 22.61 | 0.08 | 78 | 1012.4 |
| 20260507053153 | 11 | 202 | 6.4 | 11.3 | 0.00 | 22.61 | 0.08 | 76 | 1012.3 |
| 20260507052702 | 12 | 243 | 3.2 | 8.0 | 0.00 | 22.61 | 0.08 | 74 | 1012.2 |
| 20260507052156 | 12 | 134 | 3.2 | 6.4 | 0.00 | 22.61 | 0.08 | 74 | 1012.3 |
| 20260507051653 | 12 | 138 | 3.2 | 6.4 | 0.00 | 22.61 | 0.08 | 73 | 1012.2 |
| 20260507051146 | 12 | 169 | 3.2 | 6.4 | 0.00 | 22.61 | 0.08 | 72 | 1012.1 |
| 20260507050700 | 12 | 173 | 3.2 | 9.7 | 0.00 | 22.61 | 0.08 | 70 | 1012.0 |
| 20260507050159 | 12 | 180 | 4.8 | 9.7 | 0.00 | 22.61 | 0.08 | 68 | 1011.9 |
| 20260507045654 | 12 | 325 | 4.8 | 22.5 | 0.00 | 23.19 | 0.08 | 68 | 1011.9 |
| 20260507045207 | 12 | 5 | 11.3 | 22.5 | 0.00 | 23.19 | 0.08 | 67 | 1011.8 |
| 20260507044704 | 12 | 360 | 8.0 | 22.5 | 0.00 | 23.19 | 0.08 | 66 | 1011.7 |
| 20260507044154 | 12 | 56 | 9.7 | 22.5 | 0.00 | 23.19 | 0.08 | 65 | 1011.6 |
| 20260507043711 | 12 | 22 | 16.1 | 22.5 | 0.00 | 23.19 | 0.08 | 65 | 1011.5 |
| 20260507043154 | 12 | 63 | 12.9 | 27.4 | 0.00 | 23.19 | 0.08 | 64 | 1011.4 |
| 20260507042710 | 12 | 11 | 14.5 | 27.4 | 0.00 | 23.19 | 0.08 | 64 | 1011.5 |
| 20260507042205 | 12 | 34 | 12.9 | 24.1 | 0.00 | 23.19 | 0.08 | 65 | 1011.4 |
| 20260507041702 | 12 | 55 | 16.1 | 24.1 | 0.00 | 23.19 | 0.08 | 66 | 1011.5 |
| 20260507041152 | 12 | 23 | 9.7 | 32.2 | 0.00 | 23.19 | 0.08 | 66 | 1011.4 |
| 20260507040649 | 12 | 54 | 12.9 | 24.1 | 0.00 | 23.19 | 0.08 | 65 | 1011.4 |
| 20260507040216 | 12 | 29 | 11.3 | 25.7 | 0.00 | 23.19 | 0.08 | 66 | 1011.4 |
| 20260507035702 | 12 | 71 | 14.5 | 25.7 | 0.00 | 23.19 | 0.08 | 66 | 1011.4 |
| 20260507035155 | 12 | 32 | 17.7 | 27.4 | 0.00 | 23.19 | 0.08 | 67 | 1011.5 |
| 20260507034653 | 12 | 64 | 14.5 | 24.1 | 0.00 | 23.19 | 0.08 | 69 | 1011.4 |
| 20260507034150 | 12 | 39 | 9.7 | 24.1 | 0.00 | 23.19 | 0.08 | 69 | 1011.6 |
| 20260507033649 | 11 | 322 | 11.3 | 24.1 | 0.00 | 23.19 | 0.08 | 71 | 1011.7 |
| 20260507033154 | 11 | 42 | 11.3 | 20.9 | 0.00 | 23.19 | 0.08 | 72 | 1011.8 |
| 20260507032707 | 11 | 47 | 11.3 | 19.3 | 0.00 | 23.19 | 0.08 | 72 | 1011.7 |
| 20260507032202 | 11 | 350 | 8.0 | 24.1 | 0.00 | 23.19 | 0.08 | 73 | 1011.7 |
| 20260507031700 | 11 | 319 | 14.5 | 24.1 | 0.00 | 23.19 | 0.08 | 74 | 1011.8 |
| 20260507031200 | 11 | 319 | 9.7 | 24.1 | 0.00 | 23.19 | 0.08 | 74 | 1011.8 |
| 20260507030657 | 11 | 25 | 11.3 | 29.0 | 0.00 | 23.19 | 0.08 | 75 | 1011.8 |
| 20260507030159 | 11 | 336 | 17.7 | 29.0 | 0.00 | 23.19 | 0.08 | 73 | 1011.8 |
| 20260507025658 | 11 | 13 | 9.7 | 27.4 | 0.00 | 23.19 | 0.08 | 74 | 1011.7 |
| 20260507025151 | 11 | 360 | 16.1 | 25.7 | 0.00 | 23.19 | 0.08 | 76 | 1011.8 |
| 20260507024707 | 11 | 17 | 11.3 | 24.1 | 0.00 | 23.19 | 0.08 | 76 | 1011.7 |
| 20260507024203 | 11 | 46 | 11.3 | 25.7 | 0.00 | 23.19 | 0.08 | 74 | 1011.7 |
| 20260507023650 | 12 | 329 | 14.5 | 24.1 | 0.00 | 23.19 | 0.08 | 71 | 1011.8 |
| 20260507023200 | 11 | 355 | 16.1 | 27.4 | 0.00 | 23.19 | 0.08 | 73 | 1011.7 |
| 20260507022715 | 11 | 71 | 11.3 | 27.4 | 0.00 | 23.19 | 0.08 | 76 | 1011.7 |
| 20260507022216 | 11 | 347 | 8.0 | 24.1 | 0.00 | 23.19 | 0.08 | 78 | 1011.7 |
| 20260507021649 | 10 | 350 | 8.0 | 25.7 | 0.00 | 23.19 | 0.08 | 80 | 1011.8 |
| 20260507021225 | 10 | 302 | 14.5 | 27.4 | 0.00 | 23.19 | 0.08 | 81 | 1011.9 |
| 20260507020646 | 10 | 326 | 17.7 | 33.8 | 0.10 | 23.19 | 0.08 | 82 | 1011.8 |
| 20260507020154 | 10 | 355 | 17.7 | 37.0 | 0.10 | 23.19 | 0.08 | 82 | 1012.0 |
| 20260507015653 | 11 | 355 | 14.5 | 35.4 | 0.10 | 23.39 | 0.08 | 80 | 1012.0 |
| 20260507015147 | 11 | 355 | 17.7 | 35.4 | 0.10 | 23.39 | 0.08 | 79 | 1011.9 |
| 20260507014702 | 11 | 5 | 19.3 | 29.0 | 0.10 | 23.39 | 0.08 | 77 | 1011.7 |
| 20260507014202 | 11 | 5 | 16.1 | 35.4 | 0.20 | 23.39 | 0.08 | 77 | 1011.4 |
| 20260507013654 | 11 | 5 | 22.5 | 35.4 | 0.20 | 23.39 | 0.08 | 77 | 1011.5 |
| 20260507013204 | 11 | 9 | 19.3 | 30.6 | 0.20 | 23.39 | 0.08 | 77 | 1011.4 |
| 20260507012703 | 11 | 18 | 16.1 | 35.4 | 0.20 | 23.39 | 0.08 | 77 | 1011.2 |
| 20260507012154 | 11 | 25 | 9.7 | 35.4 | 0.20 | 23.39 | 0.08 | 77 | 1011.0 |
| 20260507011652 | 11 | 25 | 12.9 | 25.7 | 0.30 | 23.39 | 0.08 | 76 | 1011.0 |
| 20260507010706 | 11 | 67 | 11.3 | 20.9 | 0.20 | 23.29 | 0.05 | 77 | 1011.0 |
| 20260507010203 | 11 | 39 | 12.9 | 20.9 | 0.20 | 23.29 | 0.05 | 77 | 1011.0 |
| 20260507005701 | 11 | 32 | 8.0 | 17.7 | 0.20 | 23.60 | 0.05 | 76 | 1011.0 |
| 20260507005159 | 11 | 9 | 9.7 | 27.4 | 0.20 | 23.60 | 0.05 | 76 | 1011.0 |
| 20260507004657 | 11 | 351 | 12.9 | 27.4 | 0.20 | 23.60 | 0.05 | 75 | 1011.2 |
| 20260507004156 | 11 | 355 | 16.1 | 40.2 | 0.10 | 23.50 | 0.03 | 77 | 1011.2 |
| 20260507003653 | 11 | 360 | 20.9 | 43.5 | 0.10 | 23.50 | 0.03 | 80 | 1011.3 |
| 20260507003159 | 10 | 13 | 25.7 | 43.5 | 0.10 | 23.50 | 0.03 | 81 | 1011.5 |
| 20260507002657 | 11 | 12 | 20.9 | 41.8 | 0.10 | 23.50 | 0.03 | 78 | 1011.5 |
| 20260507002202 | 11 | 355 | 14.5 | 29.0 | 0.10 | 23.50 | 0.03 | 74 | 1011.4 |
| 20260507001701 | 11 | 355 | 16.1 | 35.4 | 0.00 | 23.39 | 0.00 | 74 | 1011.4 |
| 20260507001156 | 12 | 334 | 20.9 | 35.4 | 0.00 | 23.39 | 0.00 | 72 | 1011.4 |
| 20260507000712 | 12 | 360 | 14.5 | 25.7 | 0.00 | 23.39 | 0.00 | 72 | 1011.3 |
| 20260507000157 | 11 | 360 | 11.3 | 27.4 | 0.00 | 23.39 | 0.00 | 73 | 1011.3 |
| 20260506235654 | 11 | 341 | 12.9 | 27.4 | 0.00 | 23.80 | 0.00 | 74 | 1011.4 |
| 20260506235213 | 11 | 327 | 16.1 | 30.6 | 0.00 | 23.80 | 0.00 | 77 | 1011.5 |
| 20260506234727 | 11 | 11 | 16.1 | 33.8 | 0.00 | 23.80 | 0.00 | 80 | 1011.6 |
| 20260506234156 | 10 | 331 | 17.7 | 33.8 | 0.00 | 23.80 | 0.00 | 81 | 1011.7 |
| 20260506233651 | 10 | 15 | 17.7 | 38.6 | 0.00 | 23.80 | 0.00 | 82 | 1011.6 |
| 20260506233204 | 11 | 18 | 24.1 | 46.7 | 0.00 | 23.80 | 0.00 | 81 | 1011.7 |
| 20260506232703 | 11 | 322 | 24.1 | 46.7 | 0.00 | 23.80 | 0.00 | 76 | 1011.4 |
| 20260506232223 | 12 | 15 | 17.7 | 29.0 | 0.00 | 23.80 | 0.00 | 73 | 1011.2 |
| 20260506231712 | 12 | 339 | 17.7 | 29.0 | 0.00 | 23.80 | 0.00 | 72 | 1011.1 |
| 20260506231215 | 12 | 355 | 17.7 | 29.0 | 0.00 | 23.80 | 0.00 | 72 | 1011.1 |
| 20260506230652 | 12 | 32 | 17.7 | 33.8 | 0.00 | 23.80 | 0.00 | 72 | 1011.1 |
| 20260506230157 | 11 | 344 | 22.5 | 33.8 | 0.00 | 23.80 | 0.00 | 75 | 1011.2 |
| 20260506225657 | 11 | 21 | 17.7 | 33.8 | 0.00 | 24.69 | 0.00 | 74 | 1011.2 |
| 20260506225153 | 11 | 9 | 16.1 | 35.4 | 0.00 | 24.69 | 0.00 | 74 | 1011.1 |
| 20260506224654 | 11 | 331 | 17.7 | 35.4 | 0.00 | 24.69 | 0.00 | 77 | 1011.0 |
| 20260506224213 | 11 | 12 | 17.7 | 35.4 | 0.00 | 24.69 | 0.00 | 77 | 1011.0 |
| 20260506223649 | 11 | 5 | 20.9 | 35.4 | 0.00 | 24.69 | 0.00 | 77 | 1011.1 |
| 20260506223154 | 11 | 5 | 20.9 | 30.6 | 0.00 | 24.69 | 0.00 | 76 | 1011.2 |
| 20260506222649 | 12 | 31 | 20.9 | 30.6 | 0.00 | 24.69 | 0.00 | 76 | 1011.1 |
| 20260506222153 | 12 | 333 | 19.3 | 30.6 | 0.00 | 24.69 | 0.00 | 77 | 1011.0 |
| 20260506221704 | 12 | 348 | 19.3 | 30.6 | 0.00 | 24.69 | 0.00 | 76 | 1011.0 |
| 20260506221207 | 12 | 9 | 20.9 | 38.6 | 0.00 | 24.69 | 0.00 | 77 | 1010.8 |
| 20260506220659 | 12 | 355 | 20.9 | 38.6 | 0.00 | 24.69 | 0.00 | 75 | 1010.9 |
| 20260506220219 | 12 | 355 | 20.9 | 32.2 | 0.00 | 24.69 | 0.00 | 73 | 1011.0 |
| 20260506215654 | 12 | 338 | 17.7 | 33.8 | 0.00 | 2.64 | 6.27 | 72 | 1010.9 |
| 20260506215229 | 12 | 10 | 17.7 | 33.8 | 0.10 | 2.64 | 6.27 | 73 | 1010.8 |
| 20260506214655 | 12 | 355 | 19.3 | 29.0 | 0.10 | 2.64 | 6.27 | 72 | 1010.8 |
| 20260506214201 | 12 | 350 | 11.3 | 17.7 | 0.10 | 2.64 | 6.27 | 75 | 1010.8 |
| 20260506213700 | 12 | 23 | 0.0 | 11.3 | 0.10 | 2.64 | 6.27 | 77 | 1010.7 |
| 20260506213149 | 12 | 81 | 3.2 | 16.1 | 0.10 | 2.64 | 6.27 | 75 | 1010.7 |